Fairfield, OH

10:14 AM EST on February 25, 2017 (GMT -0500)
Butler County Regional

Weather History for KHAO - September, 2013

Change the Weather History Date:

Monday, September 16, 2013

  Actual Average (KLUK) Record (KLUK)
Temperature  
Mean Temperature 66 °F -  
Max Temperature 73 °F 76 °F 93 °F (1991)
Min Temperature 57 °F 56 °F 42 °F (2011)
Cooling Degree Days 1    
Growing Degree Days 16 (Base 50)    
Moisture  
Dew Point 55 °F    
Average Humidity 75    
Maximum Humidity 90    
Minimum Humidity 49    
Precipitation  
Precipitation 0.00 in - - ()
Sea Level Pressure  
Sea Level Pressure 30.22 in    
Wind  
Wind Speed 5 mph (NNE)    
Max Wind Speed 9 mph    
Max Gust Speed -    
Visibility 10 miles    
Events      
Averages and records for this station are not official NWS values.
T = Trace of Precipitation, MM = Missing Value Source: NWS Daily Summary

Daily Weather History Graph

Daily Weather History Graph

Search for Another Location

Airport or City:

Trip Planner

Search our weather history database for the weather conditions in past years. The results will help you decide how hot, cold, wet, or windy it might be!

Date:

Astronomy

Sep. 16, 2013 Rise Set
Actual Time 7:20 AM EDT 7:44 PM EDT
Civil Twilight 6:53 AM EDT 8:11 PM EDT
Nautical Twilight 6:21 AM EDT 8:42 PM EDT
Astronomical Twilight 5:49 AM EDT 9:15 PM EDT
Moon 5:52 PM EDT (9/16) 4:06 AM EDT (9/16)
Length of Visible Light 13h 17m
Length of Day
12h 24m
Waxing Gibbous, 90% of the Moon is Illuminated
Sep 16
Waxing Gibbous
Sep 19
Full
Sep 26
Last Quarter
Oct 4
New
Oct 11
First Quarter

Hourly Weather History & Observations

Time (EDT) Temp. Dew Point Humidity Pressure Visibility Wind Dir Wind Speed Gust Speed Precip Events Conditions
12:53 AM 63.0 °F 55.9 °F 78% 30.11 in 10.0 mi NNE 8.1 mph - 0.00 in   Overcast
1:53 AM 62.1 °F 55.9 °F 80% 30.12 in 10.0 mi Calm Calm - N/A   Overcast
2:53 AM 61.0 °F 57.0 °F 87% 30.13 in 10.0 mi NNE 4.6 mph - 0.00 in   Overcast
3:53 AM 60.1 °F 57.0 °F 90% 30.13 in 10.0 mi North 3.5 mph - 0.00 in   Overcast
4:53 AM 60.1 °F 57.0 °F 90% 30.14 in 10.0 mi East 3.5 mph - N/A   Overcast
5:53 AM 61.0 °F 57.0 °F 87% 30.15 in 10.0 mi Calm Calm - N/A   Overcast
6:53 AM 61.0 °F 57.0 °F 87% 30.17 in 10.0 mi Calm Calm - N/A   Overcast
7:35 AM 60.8 °F 57.2 °F 88% 30.19 in 10.0 mi NNE 3.5 mph - N/A   Overcast
7:53 AM 61.0 °F 57.0 °F 87% 30.19 in 8.0 mi Calm Calm - N/A   Overcast
8:25 AM 60.8 °F 57.2 °F 88% 30.21 in 4.0 mi Calm Calm - N/A   Overcast
8:53 AM 61.0 °F 57.9 °F 90% 30.22 in 7.0 mi North 5.8 mph - N/A   Overcast
9:15 AM 60.8 °F 57.2 °F 88% 30.22 in 7.0 mi NNE 3.5 mph - N/A   Overcast
9:53 AM 62.1 °F 57.9 °F 86% 30.23 in 9.0 mi NNE 6.9 mph - N/A   Overcast
10:18 AM 62.6 °F 57.2 °F 82% 30.24 in 10.0 mi NNE 6.9 mph - N/A   Overcast
10:27 AM 62.6 °F 57.2 °F 82% 30.25 in 10.0 mi North 9.2 mph - N/A   Overcast
10:53 AM 64.0 °F 57.0 °F 78% 30.25 in 10.0 mi NE 6.9 mph - N/A   Overcast
11:53 AM 66.9 °F 55.9 °F 68% 30.27 in 10.0 mi NE 5.8 mph - N/A   Overcast
12:53 PM 68.0 °F 55.9 °F 65% 30.27 in 10.0 mi East 8.1 mph - N/A   Overcast
1:34 PM 69.8 °F 55.4 °F 60% 30.27 in 10.0 mi NE 8.1 mph - N/A   Overcast
1:53 PM 71.1 °F 55.0 °F 57% 30.27 in 10.0 mi Variable 5.8 mph - N/A   Overcast
2:53 PM 71.1 °F 54.0 °F 55% 30.26 in 10.0 mi NE 6.9 mph - N/A   Mostly Cloudy
3:53 PM 73.0 °F 53.1 °F 49% 30.24 in 10.0 mi ENE 5.8 mph - N/A   Mostly Cloudy
4:53 PM 72.0 °F 53.1 °F 51% 30.24 in 10.0 mi NNE 8.1 mph - N/A   Scattered Clouds
5:53 PM 73.0 °F 54.0 °F 51% 30.24 in 10.0 mi NNE 9.2 mph - N/A   Partly Cloudy
6:53 PM 70.0 °F 52.0 °F 53% 30.25 in 10.0 mi NNE 9.2 mph - N/A   Clear
7:53 PM 66.0 °F 52.0 °F 60% 30.25 in 10.0 mi NNE 6.9 mph - N/A   Clear
8:53 PM 61.0 °F 52.0 °F 72% 30.27 in 10.0 mi North 4.6 mph - N/A   Clear
9:53 PM 60.1 °F 52.0 °F 75% 30.28 in 10.0 mi NNE 5.8 mph - N/A   Clear
10:53 PM 59.0 °F 51.1 °F 75% 30.29 in 10.0 mi NNE 5.8 mph - N/A   Clear
11:53 PM 57.9 °F 51.1 °F 78% 30.30 in 10.0 mi NE 5.8 mph - N/A   Clear